KF5FGL Weather Reports


Display with metric or nautical units.
time (UTC)temp
F
wind
direction
speed
MPH
gust
MPH
rain 1hr
in
rain 24hr
in
rain mn
in
humidity
%
barometer
mb
20260901041603 86 100 1.0 5.0 0.00 0.00 0.00 67 1013.3
20260901040021 86 130 2.0 8.0 0.00 0.00 0.00 66 1013.3
20260901034517 87 109 3.0 11.0 0.00 0.00 0.00 65 1013.3
20260901033040 88 154 0.0 9.0 0.00 0.00 0.00 63 1013.2
20260901031526 88 237 2.0 13.0 0.00 0.00 0.00 61 1013.0
20260901030010 89 148 1.0 8.0 0.00 0.00 0.00 59 1012.7
20260901024535 90 144 2.0 11.0 0.00 0.00 0.00 56 1012.3
20260901023021 91 146 0.0 7.0 0.00 0.00 0.00 55 1012.2
20260901021510 91 183 2.0 11.0 0.00 0.00 0.00 55 1011.9
20260901020028 91 164 3.0 8.0 0.00 0.00 0.00 55 1011.8
20260901014517 91 125 2.0 8.0 0.00 0.00 0.00 54 1011.6
20260901013005 92 123 1.0 8.0 0.00 0.00 0.00 53 1011.4
20260901011531 92 75 2.0 10.0 0.00 0.00 0.00 53 1011.2
20260901010016 92 138 5.0 13.0 0.00 0.00 0.00 52 1011.1
20260901004503 92 135 4.0 9.0 0.00 0.00 0.00 50 1011.0
20260901003030 92 141 1.0 5.0 0.00 0.00 0.00 47 1010.9
20260901001510 93 113 0.0 3.0 0.00 0.00 0.00 47 1010.7
20260901000030 94 102 2.0 8.0 0.00 0.00 0.00 45 1010.6
20260831234520 95 73 3.0 8.0 0.00 0.00 0.00 44 1010.5
20260831233005 94 91 2.0 5.0 0.00 0.00 0.00 45 1010.6
20260831231525 94 96 0.0 7.0 0.00 0.00 0.00 45 1010.6
20260831230014 96 97 0.0 3.0 0.00 0.00 0.00 43 1010.7
20260831224604 98 132 1.0 5.0 0.00 0.00 0.00 41 1010.7
20260831223021 98 98 2.0 6.0 0.00 0.00 0.00 41 1010.8
20260831221521 98 121 1.0 8.0 0.00 0.00 0.00 44 1011.0
20260831220027 94 135 0.0 5.0 0.00 0.00 0.00 48 1011.1
20260831214513 94 84 2.0 7.0 0.00 0.00 0.00 47 1011.3
20260831213003 93 100 1.0 5.0 0.00 0.00 0.00 48 1011.5
20260831211523 95 142 2.0 8.0 0.00 0.00 0.00 47 1011.7
20260831210009 96 123 1.0 5.0 0.00 0.00 0.00 45 1011.8
20260831204529 93 101 1.0 8.0 0.00 0.00 0.00 47 1012.2
20260831203014 96 159 1.0 6.0 0.00 0.00 0.00 48 1012.5
20260831201503 94 29 1.0 6.0 0.00 0.00 0.00 50 1012.7
20260831200019 95 102 3.0 7.0 0.00 0.00 0.00 49 1013.1
20260831194508 94 125 0.0 4.0 0.00 0.00 0.00 52 1013.2
20260831193037 93 48 3.0 10.0 0.00 0.00 0.00 52 1013.5
20260831191513 93 102 3.0 7.0 0.00 0.00 0.00 51 1013.7
20260831190001 95 125 4.0 10.0 0.00 0.00 0.00 49 1014.0
20260831184520 93 129 2.0 8.0 0.00 0.00 0.00 52 1014.0
20260831183014 93 104 2.0 7.0 0.00 0.00 0.00 54 1014.2
20260831181537 95 199 2.0 7.0 0.00 0.00 0.00 50 1014.3
20260831180014 93 106 2.0 10.0 0.00 0.00 0.00 54 1014.3
20260831174501 93 122 1.0 5.0 0.00 0.00 0.00 53 1014.7
20260831173023 92 190 1.0 7.0 0.00 0.00 0.00 55 1014.8
20260831171508 93 143 2.0 7.0 0.00 0.00 0.00 54 1014.9
20260831170022 93 168 0.0 7.0 0.00 0.00 0.00 58 1014.9
20260831164517 89 103 3.0 8.0 0.00 0.00 0.00 63 1015.0
20260831163029 90 71 2.0 7.0 0.00 0.00 0.00 61 1015.0
20260831161514 90 162 1.0 7.0 0.00 0.00 0.00 64 1015.1
20260831160001 89 194 1.0 10.0 0.00 0.00 0.00 67 1015.1
20260831154525 88 141 2.0 6.0 0.00 0.00 0.00 69 1015.0
20260831153012 87 207 1.0 5.0 0.00 0.00 0.00 71 1014.9
20260831151524 87 148 1.0 4.0 0.00 0.00 0.00 71 1014.9
20260831150009 85 157 1.0 5.0 0.00 0.00 0.00 77 1014.9
20260831144525 84 151 0.0 5.0 0.00 0.00 0.00 80 1014.8
20260831143011 83 83 1.0 4.0 0.00 0.00 0.00 82 1014.9
20260831141527 81 162 0.0 2.0 0.00 0.00 0.00 83 1014.9
20260831140014 80 139 1.0 3.0 0.00 0.00 0.00 82 1014.8
20260831134504 79 82 1.0 4.0 0.00 0.00 0.00 82 1014.6
20260831133021 78 106 0.0 4.0 0.00 0.00 0.00 79 1014.5
20260831131509 78 116 0.0 1.0 0.00 0.00 0.00 78 1014.5
20260831130026 77 109 0.0 2.0 0.00 0.00 0.00 77 1014.3
20260831124515 77 138 0.0 0.0 0.00 0.00 0.00 76 1014.2
20260831123001 76 140 0.0 0.0 0.00 0.00 0.00 77 1014.1
20260831121524 76 140 0.0 0.0 0.00 0.00 0.00 77 1014.1
20260831120013 76 140 0.0 0.0 0.00 0.00 0.00 77 1014.0
20260831114529 76 140 0.0 0.0 0.00 0.00 0.00 78 1013.9
20260831113019 76 140 0.0 0.0 0.00 0.00 0.00 78 1013.9
20260831111509 76 140 0.0 0.0 0.00 0.00 0.00 79 1013.7
20260831110026 76 140 0.0 0.0 0.00 0.00 0.00 79 1013.8
20260831104512 77 140 0.0 3.0 0.00 0.00 0.00 81 1013.7
20260831103031 78 156 0.0 1.0 0.00 0.00 0.00 82 1013.7
20260831101518 77 157 0.0 1.0 0.00 0.00 0.00 80 1013.8
20260831100005 77 153 0.0 0.0 0.00 0.00 0.00 82 1013.9
20260831094537 79 154 0.0 2.0 0.00 0.00 0.00 83 1013.9
20260831093022 78 141 0.0 2.0 0.00 0.00 0.00 81 1013.8
20260831091508 78 144 0.0 2.0 0.00 0.00 0.00 82 1013.9
20260831090023 78 166 0.0 1.0 0.00 0.00 0.00 82 1014.0
20260831084536 80 166 0.0 1.0 0.00 0.00 0.00 83 1014.0
20260831081523 78 157 0.0 2.0 0.00 0.00 0.00 82 1014.0
20260831080029 78 171 0.0 4.0 0.00 0.00 0.00 83 1014.1
20260831074543 80 150 0.0 1.0 0.00 0.00 0.00 83 1014.1
20260831073018 79 155 0.0 0.0 0.00 0.00 0.00 83 1013.9
20260831071506 79 146 0.0 2.0 0.00 0.00 0.00 83 1014.0
20260831070030 80 186 0.0 3.0 0.00 0.00 0.00 82 1014.1
20260831064514 80 206 0.0 4.0 0.00 0.00 0.00 82 1014.1
20260831063112 79 198 1.0 4.0 0.00 0.00 0.00 82 1014.1
20260831061521 80 169 1.0 8.0 0.00 0.00 0.00 81 1014.2
20260831060008 82 154 1.0 6.0 0.00 0.00 0.00 77 1014.1
20260831054526 81 187 1.0 7.0 0.00 0.00 0.00 78 1014.0
20260831053012 82 200 0.0 5.0 0.00 0.00 0.00 74 1013.9
20260831051537 83 175 1.0 5.0 0.00 0.00 0.00 72 1013.8
20260831050018 82 131 2.0 8.0 0.00 0.00 0.00 73 1013.8
20260831044512 84 177 0.0 8.0 0.00 0.00 0.00 69 1013.7
20260831043027 84 149 1.0 9.0 0.00 0.00 0.00 69 1013.5